Location: Poughquag
(41.6090°N, 73.6820°W)
Time: 03:37:58
(UTC-04:00)

Explorer 11/Cluster Stage 4 - Pass Details

Date: 02 June 2020
Orbit: 467 x 1259 km, 28.8° (Epoch: 06 July)

Event Time Altitude Azimuth Distance (km) Brightness Sun altitude
Rises 06:34:21 0° 232° (SW) 3,360 9.2 11.3°
Reaches altitude 10° 06:37:08 10° 219° (SW) 2,563 8.8 11.8°
Maximum altitude 06:42:07 25° 167° (SSE) 1,930 8.6 12.7°
Drops below altitude 10° 06:47:50 10° 116° (ESE) 3,000 10.4 13.7°
Sets 06:51:23 0° 104° (ESE) 4,064 11.3 14.3°
